Temp
-14 -15 -14 -14 -14 -14 -14 -14 -14 -15 -15 -16 -17 -17 -17 -18 -18 -18 -19 -19 -19 -19 -19 -19 -19 -19 -20 -20 -19 -19 -19 -19 -19 -18 -19 -18 -18 -18 -18 -18 -17 -17 -17
-15 -15 -15 -15 -15 -15 -15 -16 -16 -17 -17 -18 -18 -18 -18 -19 -19 -19 -19 -19 -19 -19 -19 -20 -20 -20 -20 -20 -20 -20 -20 -20 -20 -19 -19 -19 -19 -19 -18 -18 -18 -18 -18
-15 -15 -16 -16 -16 -17 -17 -18 -18 -18 -19 -19 -19 -19 -19 -19 -20 -20 -20 -20 -20 -20 -20 -20 -20 -20 -21 -21 -21 -21 -20 -21 -21 -20 -19 -19 -19 -19 -20 -19 -19 -19 -19
-16 -16 -17 -18 -18 -19 -19 -19 -20 -20 -20 -20 -20 -20 -20 -20 -20 -20 -20 -20 -20 -20 -20 -21 -21 -21 -21 -21 -21 -21 -21 -21 -21 -21 -21 -20 -20 -21 -21 -20 -19 -19 -18
-18 -18 -19 -19 -20 -21 -21 -21 -21 -21 -21 -21 -21 -21 -21 -21 -20 -21 -21 -21 -21 -21 -21 -21 -22 -22 -22 -22 -22 -22 -22 -22 -22 -22 -22 -22 -22 -22 -22 -22 -22 -20 -20
-20 -20 -20 -21 -21 -21 -21 -21 -21 -21 -21 -21 -21 -21 -21 -21 -21 -21 -21 -21 -21 -21 -21 -22 -22 -22 -22 -23 -23 -23 -23 -22 -22 -22 -22 -22 -22 -22 -22 -22 -22 -22 -21
-21 -21 -21 -21 -22 -22 -22 -22 -22 -22 -22 -22 -22 -22 -22 -22 -22 -22 -22 -22 -22 -22 -22 -22 -22 -22 -23 -23 -23 -23 -23 -23 -23 -22 -22 -22 -21 -22 -21 -21 -22 -22 -22
-22 -22 -22 -22 -22 -22 -23 -23 -23 -23 -23 -23 -23 -23 -23 -23 -23 -23 -23 -22 -22 -22 -22 -22 -22 -22 -22 -23 -22 -22 -22 -22 -22 -22 -22 -22 -22 -22 -22 -21 -21 -21 -21
-22 -23 -23 -23 -23 -23 -23 -23 -23 -23 -23 -23 -23 -23 -23 -23 -23 -23 -23 -23 -23 -23 -23 -23 -23 -23 -23 -22 -22 -22 -22 -22 -22 -22 -22 -22 -22 -22 -22 -22 -22 -22 -21
-23 -23 -23 -23 -23 -23 -23 -23 -23 -23 -24 -24 -24 -24 -24 -24 -24 -24 -23 -23 -23 -23 -23 -23 -24 -23 -23 -23 -23 -23 -22 -22 -22 -22 -22 -22 -22 -22 -22 -22 -22 -22 -22
-23 -23 -24 -24 -24 -24 -24 -24 -24 -24 -24 -24 -24 -24 -24 -24 -24 -24 -24 -24 -24 -24 -24 -24 -24 -24 -24 -24 -24 -24 -23 -23 -22 -22 -23 -23 -23 -23 -23 -22 -23 -22 -22
-24 -24 -24 -24 -24 -24 -24 -24 -25 -24 -25 -25 -25 -25 -25 -25 -25 -25 -26 -25 -25 -25 -25 -25 -25 -25 -25 -24 -24 -24 -23 -24 -24 -23 -23 -23 -23 -23 -23 -23 -23 -23 -23
-24 -24 -24 -24 -24 -25 -24 -24 -25 -25 -25 -25 -25 -26 -26 -26 -26 -26 -26 -26 -26 -26 -26 -25 -25 -25 -25 -24 -25 -24 -24 -24 -24 -24 -24 -24 -24 -25 -25 -25 -26 -26 -25
-24 -24 -25 -25 -25 -25 -25 -25 -25 -25 -26 -26 -26 -26 -26 -26 -26 -26 -27 -26 -26 -26 -26 -26 -26 -26 -25 -25 -25 -25 -26 -26 -26 -27 -27 -27 -28 -29 -29 -29 -29 -28 -27
-25 -25 -25 -25 -25 -25 -26 -26 -26 -26 -26 -26 -27 -27 -27 -27 -27 -27 -27 -27 -27 -27 -27 -27 -27 -27 -27 -28 -28 -29 -29 -29 -30 -31 -31 -32 -32 -32 -32 -32 -32 -31 -31
-25 -25 -25 -26 -26 -26 -26 -27 -27 -27 -27 -27 -27 -27 -27 -27 -27 -27 -27 -28 -28 -28 -29 -29 -29 -30 -30 -30 -30 -30 -31 -31 -32 -33 -33 -33 -33 -33 -33 -33 -33 -32 -32
-25 -25 -26 -26 -26 -27 -27 -27 -27 -27 -27 -28 -28 -28 -28 -28 -28 -29 -29 -30 -30 -31 -32 -32 -33 -33 -33 -33 -33 -33 -33 -34 -34 -34 -34 -34 -34 -33 -33 -33 -33 -32 -33
-26 -26 -26 -27 -27 -27 -27 -28 -28 -28 -29 -29 -29 -29 -29 -30 -31 -31 -32 -33 -33 -34 -34 -34 -34 -34 -34 -35 -35 -35 -35 -35 -35 -35 -35 -35 -34 -34 -34 -33 -33 -33 -33
-27 -27 -28 -28 -28 -28 -28 -28 -29 -29 -29 -30 -30 -31 -32 -32 -33 -33 -34 -34 -34 -35 -35 -35 -35 -35 -35 -35 -35 -35 -35 -35 -36 -36 -36 -36 -35 -34 -34 -34 -34 -34 -33
-28 -28 -28 -28 -28 -29 -29 -29 -30 -30 -31 -31 -32 -33 -33 -34 -34 -35 -35 -35 -35 -35 -35 -35 -36 -36 -36 -36 -36 -36 -36 -36 -36 -36 -36 -36 -36 -36 -35 -34 -34 -34 -34
-28 -29 -29 -29 -29 -30 -30 -30 -31 -31 -32 -33 -34 -34 -35 -35 -35 -35 -35 -36 -36 -36 -36 -36 -36 -36 -36 -36 -37 -37 -37 -37 -37 -37 -37 -37 -36 -36 -36 -35 -34 -34 -34
-29 -30 -30 -30 -31 -31 -31 -31 -32 -33 -34 -34 -35 -35 -35 -35 -36 -36 -36 -36 -36 -36 -36 -36 -37 -37 -36 -36 -37 -37 -37 -37 -37 -37 -37 -37 -37 -37 -36 -36 -35 -34 -34
-30 -30 -31 -31 -32 -32 -32 -32 -33 -34 -35 -36 -36 -36 -36 -36 -36 -36 -36 -36 -36 -37 -37 -37 -37 -37 -37 -37 -37 -37 -37 -37 -37 -37 -37 -37 -37 -37 -37 -36 -36 -35 -34
-31 -31 -31 -32 -32 -33 -34 -35 -35 -36 -36 -36 -36 -37 -37 -37 -37 -37 -37 -37 -37 -37 -37 -37 -37 -37 -37 -37 -37 -38 -38 -38 -37 -37 -37 -37 -37 -37 -37 -37 -36 -36 -35
-32 -32 -33 -33 -34 -34 -35 -36 -37 -37 -37 -37 -37 -37 -37 -37 -37 -37 -37 -37 -37 -37 -37 -37 -38 -38 -38 -38 -38 -38 -38 -38 -38 -38 -38 -38 -38 -38 -38 -37 -37 -36 -36
-33 -33 -34 -34 -35 -36 -37 -37 -37 -37 -37 -37 -37 -37 -37 -37 -37 -37 -37 -37 -37 -37 -37 -38 -38 -38 -38 -38 -38 -38 -38 -38 -38 -38 -38 -38 -38 -38 -38 -38 -38 -37 -36
Height
5707 5706 5704 5702 5700 5697 5693 5690 5687 5684 5681 5679 5676 5673 5671 5668 5666 5664 5661 5659 5655 5653 5649 5646 5643 5641 5638 5635 5632 5630 5625 5621 5619 5629 5625 5624 5624 5620 5618 5614 5614 5615 5618
5691 5690 5687 5684 5681 5678 5676 5673 5670 5668 5665 5663 5661 5659 5657 5655 5652 5649 5646 5643 5640 5637 5634 5631 5627 5625 5622 5619 5617 5614 5610 5606 5604 5607 5609 5607 5604 5600 5598 5598 5597 5597 5598
5674 5672 5670 5667 5664 5662 5660 5658 5656 5653 5651 5649 5647 5644 5642 5641 5637 5634 5631 5628 5624 5621 5617 5614 5611 5608 5606 5604 5601 5598 5595 5591 5586 5585 5590 5591 5586 5582 5578 5577 5579 5579 5581
5659 5657 5653 5650 5648 5646 5645 5643 5641 5639 5637 5635 5633 5631 5629 5627 5623 5620 5616 5613 5609 5606 5602 5598 5595 5592 5590 5588 5585 5582 5578 5575 5572 5570 5570 5570 5568 5565 5560 5558 5562 5561 5564
5640 5639 5637 5635 5633 5631 5630 5628 5626 5624 5622 5619 5617 5615 5613 5612 5608 5605 5601 5597 5594 5590 5586 5583 5579 5576 5574 5571 5569 5566 5563 5560 5557 5554 5553 5553 5551 5548 5543 5543 5541 5541 5547
5622 5621 5621 5619 5618 5616 5614 5613 5611 5609 5606 5603 5601 5599 5597 5595 5592 5589 5586 5582 5578 5574 5571 5567 5563 5560 5558 5556 5552 5549 5546 5543 5541 5538 5538 5535 5532 5529 5526 5523 5522 5522 5526
5607 5606 5605 5603 5602 5600 5599 5597 5595 5593 5591 5588 5585 5582 5580 5578 5576 5573 5570 5566 5562 5558 5553 5550 5547 5543 5540 5538 5536 5533 5529 5524 5520 5520 5520 5516 5515 5508 5505 5505 5500 5499 5503
5592 5590 5589 5588 5587 5585 5583 5581 5579 5576 5574 5571 5569 5566 5563 5560 5557 5555 5552 5549 5545 5541 5536 5532 5529 5526 5522 5519 5518 5514 5511 5505 5501 5499 5495 5495 5490 5487 5481 5479 5477 5474 5481
5577 5575 5574 5572 5571 5570 5568 5566 5563 5561 5559 5556 5553 5550 5546 5542 5539 5536 5535 5532 5528 5524 5518 5512 5508 5505 5501 5496 5494 5492 5489 5483 5477 5474 5471 5468 5466 5460 5455 5452 5452 5446 5452
5562 5560 5559 5557 5555 5554 5552 5550 5548 5545 5542 5539 5536 5533 5530 5526 5520 5519 5515 5513 5509 5505 5499 5493 5486 5482 5478 5471 5466 5463 5462 5459 5452 5450 5444 5440 5435 5433 5426 5419 5415 5414 5417
5546 5545 5543 5542 5540 5539 5536 5534 5531 5529 5526 5523 5519 5515 5511 5508 5502 5499 5494 5490 5487 5482 5477 5471 5464 5458 5452 5445 5437 5432 5427 5427 5425 5419 5415 5410 5405 5400 5395 5387 5380 5371 5374
5531 5530 5528 5526 5524 5522 5519 5517 5515 5512 5508 5504 5500 5496 5492 5487 5481 5477 5471 5467 5462 5457 5452 5446 5439 5433 5426 5418 5410 5401 5395 5389 5386 5385 5378 5374 5366 5362 5357 5350 5344 5335 5329
5516 5514 5512 5509 5507 5504 5502 5499 5496 5493 5489 5485 5480 5476 5471 5465 5460 5455 5448 5444 5438 5431 5427 5420 5412 5406 5398 5390 5380 5371 5363 5354 5347 5343 5337 5329 5322 5316 5310 5304 5300 5292 5292
5500 5498 5495 5493 5490 5488 5484 5481 5477 5473 5469 5465 5460 5455 5450 5445 5438 5432 5426 5420 5415 5407 5402 5393 5385 5376 5368 5360 5351 5339 5326 5315 5306 5300 5295 5289 5282 5278 5272 5264 5262 5259 5255
5483 5481 5479 5476 5473 5469 5465 5461 5457 5453 5449 5443 5438 5433 5428 5422 5416 5409 5401 5395 5388 5381 5375 5366 5357 5347 5337 5328 5319 5308 5296 5285 5276 5267 5260 5257 5253 5250 5246 5239 5233 5231 5224
5466 5464 5461 5457 5453 5450 5446 5442 5437 5432 5427 5421 5415 5411 5406 5399 5392 5384 5376 5368 5359 5351 5344 5335 5326 5317 5309 5300 5291 5283 5272 5261 5251 5244 5237 5231 5229 5228 5225 5219 5212 5207 5202
5448 5445 5441 5438 5435 5431 5427 5423 5417 5411 5406 5399 5393 5386 5380 5374 5365 5357 5350 5341 5331 5323 5315 5307 5299 5291 5283 5274 5265 5257 5249 5238 5230 5222 5215 5211 5207 5206 5203 5200 5194 5189 5186
5428 5425 5422 5420 5416 5412 5408 5404 5399 5393 5384 5374 5366 5361 5355 5348 5339 5332 5325 5316 5308 5298 5292 5284 5276 5268 5260 5252 5244 5237 5229 5220 5211 5204 5197 5190 5186 5185 5184 5180 5175 5171 5167
5412 5408 5405 5402 5398 5393 5387 5381 5375 5369 5363 5356 5346 5336 5332 5325 5316 5309 5302 5295 5289 5281 5272 5265 5256 5247 5240 5233 5226 5218 5210 5203 5195 5189 5182 5175 5169 5166 5165 5162 5159 5154 5151
5395 5392 5388 5382 5376 5370 5364 5358 5352 5346 5339 5333 5325 5318 5312 5307 5298 5291 5283 5276 5269 5261 5254 5247 5238 5230 5222 5215 5208 5201 5194 5186 5179 5173 5167 5161 5155 5150 5148 5146 5143 5140 5137
5376 5372 5367 5362 5356 5350 5344 5337 5330 5323 5316 5310 5303 5297 5293 5288 5281 5274 5267 5259 5251 5243 5236 5229 5221 5213 5206 5200 5192 5186 5179 5171 5164 5158 5152 5147 5141 5137 5133 5131 5128 5125 5122
5358 5354 5348 5341 5335 5329 5322 5315 5308 5301 5295 5290 5285 5279 5274 5268 5262 5256 5248 5240 5233 5226 5219 5213 5206 5198 5190 5183 5177 5170 5164 5157 5150 5144 5139 5133 5128 5124 5120 5117 5113 5111 5109
5339 5333 5327 5321 5315 5308 5301 5294 5287 5282 5278 5273 5268 5264 5258 5251 5245 5238 5231 5225 5218 5210 5203 5196 5189 5182 5174 5167 5160 5153 5148 5141 5135 5129 5125 5120 5115 5110 5107 5104 5100 5098 5096
5319 5313 5307 5300 5294 5287 5280 5274 5269 5265 5261 5256 5252 5247 5241 5236 5229 5222 5216 5210 5203 5195 5187 5181 5174 5167 5160 5152 5145 5138 5131 5124 5119 5114 5109 5106 5101 5096 5092 5090 5087 5084 5082
5298 5292 5286 5280 5273 5267 5262 5256 5252 5249 5245 5241 5236 5231 5226 5220 5213 5207 5200 5194 5188 5181 5174 5167 5160 5153 5145 5139 5131 5125 5118 5111 5103 5098 5094 5090 5085 5080 5076 5074 5071 5070 5068
5279 5272 5266 5260 5254 5249 5245 5241 5238 5234 5230 5226 5221 5216 5210 5205 5199 5193 5186 5179 5173 5167 5160 5152 5145 5138 5131 5124 5117 5110 5103 5096 5090 5082 5077 5072 5068 5063 5058 5056 5054 5052 5052
Wind_Speed
65 65 65 64 65 65 65 65 65 64 63 61 59 57 56 56 56 55 55 55 55 57 58 60 60 63 63 65 65 64 65 69 69 62 64 65 67 68 59 49 49 55 58
64 65 66 66 65 64 64 63 62 61 58 56 55 55 55 54 53 53 53 54 55 57 58 59 59 59 58 59 59 59 64 67 65 70 64 69 64 69 78 78 57 54 52
64 65 64 64 64 62 60 59 58 56 55 54 54 54 54 53 53 53 54 55 57 58 59 59 60 60 59 58 57 58 59 63 62 61 62 62 63 66 67 61 59 60 66
63 62 61 60 58 56 55 54 54 54 54 55 54 54 53 53 53 54 55 57 58 59 59 59 58 57 56 53 53 54 55 58 60 60 60 61 62 61 61 64 60 62 61
62 60 58 55 53 51 51 52 53 54 54 54 54 53 53 53 54 55 56 56 58 59 59 59 58 56 54 53 52 52 53 54 55 56 55 55 55 54 53 52 54 59 58
60 60 56 53 52 52 53 53 53 53 53 53 53 53 53 54 55 56 57 58 60 60 62 61 60 59 58 57 57 58 59 59 60 59 59 60 61 62 62 62 62 60 60
58 57 56 55 53 53 53 53 53 52 52 52 54 55 56 56 57 58 60 61 62 63 64 64 64 64 64 63 64 65 66 69 70 70 69 68 69 72 74 73 73 72 66
58 58 58 57 56 55 54 52 52 52 54 55 55 56 58 59 60 60 61 63 64 65 68 69 70 71 72 73 72 73 74 76 78 77 77 76 79 81 84 86 85 84 78
60 58 55 54 53 53 53 53 54 54 54 54 55 57 59 61 62 62 64 65 68 70 72 76 77 77 78 80 80 80 81 83 85 86 87 88 88 88 89 90 92 96 92
53 53 53 54 53 54 55 55 54 55 56 57 60 61 63 65 67 67 69 71 72 73 76 80 82 84 85 87 89 89 89 89 90 91 94 96 98 100 100 102 102 103 102
53 52 51 51 52 55 56 57 58 59 60 61 62 65 67 69 71 72 73 75 77 79 80 82 84 86 87 90 93 94 94 95 99 100 101 102 104 106 107 110 113 116 114
52 52 52 54 55 57 59 62 63 63 64 64 65 68 70 73 75 77 76 77 79 79 81 82 85 88 91 94 97 100 102 105 106 107 110 112 115 117 118 120 121 124 123
58 58 58 58 60 62 64 66 66 66 66 68 69 71 72 73 75 76 77 79 81 84 85 88 91 93 96 98 101 105 108 111 114 115 117 116 112 110 108 105 102 103 103
62 58 56 59 63 66 66 66 68 70 72 75 75 74 75 76 77 79 82 84 86 90 92 95 98 100 101 104 105 106 106 106 104 103 101 99 94 89 87 87 87 86 89
61 62 63 62 64 67 71 73 73 74 76 77 77 77 78 80 83 86 89 92 94 97 99 100 101 100 96 94 92 90 90 90 90 86 83 79 74 72 70 69 69 68 72
66 64 63 67 71 71 71 73 75 78 79 79 80 81 83 86 89 92 95 98 99 99 98 95 90 87 86 86 85 84 83 81 79 76 74 71 67 64 62 63 65 62 62
62 67 68 69 71 73 74 77 79 81 80 81 84 87 89 92 95 96 96 94 94 89 81 78 78 78 79 77 74 71 69 69 69 68 69 67 64 62 61 61 60 58 54
68 68 69 70 71 73 77 79 79 79 81 84 88 90 92 92 90 88 85 79 74 74 73 73 73 74 70 67 65 64 63 64 63 62 61 60 60 57 55 56 57 55 51
64 65 68 71 74 76 77 79 81 83 85 87 87 86 83 79 77 75 71 70 70 69 69 70 69 66 64 63 62 62 61 61 60 57 57 56 54 54 52 51 52 51 48
64 68 71 74 76 78 79 81 81 82 82 81 78 75 72 68 68 67 67 68 67 67 66 64 63 62 61 60 59 59 58 57 56 55 54 54 53 51 51 48 49 48 45
67 67 67 68 70 72 74 78 79 78 75 71 67 66 65 64 62 63 65 65 64 62 61 58 57 56 55 55 56 55 54 53 52 51 51 50 50 48 47 46 46 48 44
59 62 65 68 71 74 75 76 75 72 68 63 61 60 60 61 61 62 61 61 60 58 56 55 56 58 58 57 57 56 55 54 53 52 50 48 48 47 45 44 44 46 45
61 65 68 71 73 74 76 72 67 62 58 58 55 54 58 59 60 58 57 55 54 55 57 57 56 55 56 57 56 56 54 54 53 52 49 48 48 46 45 42 42 42 44
62 66 69 70 71 70 66 61 58 54 53 51 53 56 56 56 55 54 52 52 54 54 54 53 54 54 53 53 53 53 53 53 52 51 49 48 48 47 46 44 43 42 41
64 67 69 71 68 63 59 54 51 49 49 52 53 53 52 51 51 50 52 53 52 50 52 53 53 54 54 53 53 52 52 52 53 53 52 52 50 50 50 47 44 42 42
66 68 69 67 62 56 51 49 49 50 52 52 51 49 49 48 48 51 52 51 51 53 54 55 56 56 57 57 56 56 55 55 55 57 57 56 53 52 52 51 47 45 43
Wind_Direction
275 275 276 278 279 280 280 280 281 281 280 280 280 280 279 278 278 278 279 280 279 279 280 279 280 279 280 279 279 280 280 282 280 276 278 277 276 274 279 268 274 268 268
275 277 278 279 280 281 281 280 280 280 280 279 278 278 278 279 280 280 280 279 279 279 281 281 283 283 284 282 282 277 276 278 281 276 281 273 277 278 270 271 276 271 272
276 277 279 280 279 278 278 278 278 277 276 275 275 276 279 280 280 281 280 281 281 282 283 283 284 284 285 285 283 282 280 279 281 281 281 278 277 280 282 280 278 279 284
277 278 277 278 278 278 278 277 276 276 276 276 278 279 279 280 280 280 280 280 280 281 282 284 286 286 286 284 282 281 280 280 281 284 282 279 278 281 281 280 274 277 276
278 278 278 277 277 276 276 275 276 277 278 279 279 279 279 279 279 279 279 279 280 281 283 284 285 284 284 283 282 281 282 282 283 285 287 285 282 281 282 281 279 275 273
278 278 279 278 277 277 277 277 277 278 279 279 279 279 279 279 280 279 279 280 279 278 280 281 281 282 282 282 282 283 283 283 284 285 286 286 284 282 281 280 280 279 270
277 278 278 277 279 279 279 280 281 281 279 279 279 281 282 282 281 281 281 279 278 277 276 276 277 279 279 279 280 280 281 282 283 283 282 282 281 282 281 279 279 278 276
274 275 277 279 280 279 280 280 280 280 281 282 283 284 284 285 284 283 282 280 279 278 278 278 278 278 279 278 279 280 281 282 282 283 283 280 279 278 278 278 278 276 276
275 276 277 278 279 281 281 281 281 283 284 284 284 284 284 285 284 284 284 283 281 281 281 282 281 280 279 279 280 281 281 281 282 284 283 283 283 283 280 278 276 275 274
272 273 275 276 277 278 280 281 282 283 283 284 284 285 285 285 284 285 285 284 283 282 282 282 282 282 281 281 280 280 281 281 282 284 285 285 283 282 281 280 278 277 274
271 271 273 276 278 280 281 281 282 282 283 285 286 287 288 288 287 285 285 286 286 286 286 286 286 286 286 286 286 286 284 283 283 283 283 283 283 283 282 280 279 278 277
271 274 276 277 279 281 282 283 284 285 286 287 287 287 287 286 286 287 288 288 288 288 288 289 289 289 290 290 290 290 289 289 287 286 286 286 285 284 282 280 279 278 278
270 274 276 278 280 281 283 284 286 285 286 287 289 289 289 289 288 289 290 290 291 292 292 292 292 292 292 293 294 294 294 293 293 292 291 291 288 286 283 279 277 277 276
276 278 280 284 283 281 283 286 285 285 287 289 290 290 290 290 290 292 291 292 292 293 293 294 295 296 296 296 297 297 297 296 295 293 291 289 287 285 283 283 281 280 278
278 278 279 281 282 281 282 283 284 285 287 288 289 290 291 292 293 293 293 294 294 294 294 295 295 296 297 296 296 295 295 294 292 291 290 289 288 286 286 285 287 285 282
282 281 279 279 279 282 284 285 285 287 288 289 290 290 291 292 293 294 294 294 295 295 296 297 297 296 296 297 297 296 295 293 292 290 290 290 287 285 286 286 288 287 287
272 273 273 277 282 283 283 284 287 287 288 289 290 292 293 293 293 293 295 296 297 298 298 297 298 299 300 301 300 300 299 298 297 295 290 289 289 286 285 285 288 287 288
270 273 275 277 278 279 282 283 285 287 290 293 293 293 294 295 296 296 297 298 298 299 299 300 300 302 302 302 301 300 301 300 300 301 299 293 291 289 286 286 288 289 288
274 277 277 276 278 281 284 287 290 292 293 293 294 294 295 296 296 298 298 298 299 299 300 302 302 302 301 301 301 301 301 300 300 301 300 297 293 290 288 288 288 289 288
275 277 279 283 287 290 292 293 293 292 292 292 293 293 294 295 296 296 297 300 300 301 301 301 301 302 303 303 303 303 302 301 301 300 299 299 299 295 291 288 287 288 286
284 288 290 291 291 291 292 293 294 294 294 294 294 294 294 294 294 296 298 300 301 301 302 303 304 304 304 304 304 304 304 303 303 301 300 299 299 298 296 291 286 287 287
287 291 292 293 293 295 295 297 296 294 294 294 293 293 294 296 297 299 301 302 303 303 304 304 305 304 304 304 303 303 302 302 301 300 301 301 299 298 296 292 288 286 286
291 293 294 293 294 295 297 295 293 293 292 291 291 293 297 297 300 300 302 303 304 304 306 306 307 307 306 305 304 303 302 301 301 300 299 297 297 298 296 291 286 285 283
292 294 294 295 297 298 295 294 294 291 290 290 293 296 297 298 300 302 303 304 305 306 306 308 309 309 310 309 308 308 306 304 303 302 301 300 296 296 297 295 285 281 280
294 295 296 298 298 296 294 292 290 288 289 294 296 297 298 300 302 303 305 306 306 306 307 308 309 309 310 310 309 310 309 308 306 304 303 301 298 295 295 295 289 279 274
295 296 297 297 296 293 290 287 285 287 292 295 296 297 300 301 303 305 306 307 306 307 307 307 307 307 306 306 305 305 306 306 307 307 307 304 299 295 292 292 290 282 273